Time,TemperatureF,DewpointF,PressureIn,WindDirection,WindDirectionDegrees,WindSpeedMPH,WindSpeedGustMPH,Humidity,HourlyPrecipIn,Conditions,Clouds,dailyrainin,SoftwareType,DateUTC
2013-03-22 00:00:00,22.9,20.7,29.57,ESE,104,0.0,0.0,91,0.00,,FEW100,0.00,VWS V14.00,2013-03-22 04:00:00,
2013-03-22 00:05:00,22.7,20.5,29.57,ESE,104,0.0,0.0,91,0.00,,FEW100,0.00,VWS V14.00,2013-03-22 04:05:00,
2013-03-22 00:10:00,22.6,20.4,29.57,ESE,104,0.0,0.0,91,0.00,,FEW100,0.00,VWS V14.00,2013-03-22 04:10:00,
2013-03-22 00:15:00,22.5,20.3,29.57,ESE,104,0.0,0.0,91,0.00,,FEW100,0.00,VWS V14.00,2013-03-22 04:15:00,
2013-03-22 00:20:00,22.4,20.2,29.56,ESE,104,0.0,0.0,91,0.00,,FEW100,0.00,VWS V14.00,2013-03-22 04:20:00,
2013-03-22 00:25:00,22.2,20.0,29.56,ESE,104,0.0,0.0,91,0.00,,FEW100,0.00,VWS V14.00,2013-03-22 04:25:00,
2013-03-22 00:30:00,22.1,19.9,29.57,ESE,104,0.0,0.0,91,0.00,,FEW200,0.00,VWS V14.00,2013-03-22 04:30:00,
2013-03-22 00:35:00,22.0,19.8,29.57,ESE,104,0.0,0.0,91,0.00,,FEW200,0.00,VWS V14.00,2013-03-22 04:35:00,
2013-03-22 00:40:00,21.8,19.6,29.57,ESE,104,0.0,0.0,91,0.00,,FEW200,0.00,VWS V14.00,2013-03-22 04:40:00,
2013-03-22 00:45:00,21.7,19.7,29.56,ESE,104,0.0,0.0,92,0.00,,FEW200,0.00,VWS V14.00,2013-03-22 04:45:00,
2013-03-22 00:50:00,21.6,19.6,29.56,ESE,104,0.0,0.0,92,0.00,,FEW200,0.00,VWS V14.00,2013-03-22 04:50:00,
2013-03-22 00:55:00,21.5,19.5,29.57,ESE,104,0.0,0.0,92,0.00,,FEW200,0.00,VWS V14.00,2013-03-22 04:55:00,
2013-03-22 01:00:00,21.5,19.5,29.56,ESE,104,0.0,0.0,92,0.00,,FEW200,0.00,VWS V14.00,2013-03-22 05:00:00,
2013-03-22 01:05:00,21.4,19.4,29.57,ESE,104,0.0,0.0,92,0.00,,FEW200,0.00,VWS V14.00,2013-03-22 05:05:00,
2013-03-22 01:10:00,21.3,19.3,29.56,ESE,104,0.0,0.0,92,0.00,,FEW200,0.00,VWS V14.00,2013-03-22 05:10:00,
2013-03-22 01:15:00,21.1,19.1,29.57,ESE,104,0.0,0.0,92,0.00,,FEW200,0.00,VWS V14.00,2013-03-22 05:15:00,
2013-03-22 01:20:00,20.9,19.0,29.56,ESE,104,0.0,0.0,92,0.00,,FEW200,0.00,VWS V14.00,2013-03-22 05:20:00,
2013-03-22 01:25:00,20.8,18.9,29.56,ESE,104,0.0,0.0,92,0.00,,FEW200,0.00,VWS V14.00,2013-03-22 05:25:00,
2013-03-22 01:30:00,20.7,18.8,29.56,ESE,104,0.0,0.0,92,0.00,,FEW200,0.00,VWS V14.00,2013-03-22 05:30:00,
2013-03-22 01:35:00,20.6,18.6,29.56,ESE,104,0.0,0.0,92,0.00,,FEW200,0.00,VWS V14.00,2013-03-22 05:35:00,
2013-03-22 01:40:00,20.5,18.5,29.56,ESE,104,0.0,0.0,92,0.00,,FEW200,0.00,VWS V14.00,2013-03-22 05:40:00,
2013-03-22 01:45:00,20.4,18.5,29.56,ESE,104,0.0,0.0,92,0.00,,FEW200,0.00,VWS V14.00,2013-03-22 05:45:00,
2013-03-22 01:50:00,20.2,18.2,29.56,ESE,104,0.0,0.0,92,0.00,,FEW200,0.00,VWS V14.00,2013-03-22 05:50:00,
2013-03-22 01:55:00,20.0,18.0,29.56,ESE,104,0.0,0.0,92,0.00,,FEW200,0.00,VWS V14.00,2013-03-22 05:55:00,
2013-03-22 02:00:00,20.0,18.0,29.57,ESE,104,0.0,0.0,92,0.00,,FEW200,0.00,VWS V14.00,2013-03-22 06:00:00,
2013-03-22 02:05:00,19.9,18.0,29.56,ESE,104,0.0,0.0,92,0.00,,FEW200,0.00,VWS V14.00,2013-03-22 06:05:00,
2013-03-22 02:10:00,19.8,17.9,29.56,ESE,104,0.0,0.0,92,0.00,,FEW200,0.00,VWS V14.00,2013-03-22 06:10:00,
2013-03-22 02:15:00,19.9,18.0,29.56,ESE,104,1.0,2.0,92,0.00,,FEW200,0.00,VWS V14.00,2013-03-22 06:15:00,
2013-03-22 02:20:00,20.3,18.6,29.56,ESE,104,2.0,2.0,93,0.00,,FEW200,0.00,VWS V14.00,2013-03-22 06:20:00,
2013-03-22 02:25:00,20.5,18.8,29.56,ESE,104,1.0,2.0,93,0.00,,FEW200,0.00,VWS V14.00,2013-03-22 06:25:00,
2013-03-22 02:30:00,20.7,19.0,29.56,ESE,104,0.0,1.0,93,0.00,,FEW200,0.00,VWS V14.00,2013-03-22 06:30:00,
2013-03-22 02:35:00,20.8,19.1,29.56,ESE,104,1.0,2.0,93,0.00,,FEW200,0.00,VWS V14.00,2013-03-22 06:35:00,
2013-03-22 02:40:00,20.8,19.1,29.56,ESE,104,0.0,2.0,93,0.00,,FEW200,0.00,VWS V14.00,2013-03-22 06:40:00,
2013-03-22 02:45:00,20.8,19.1,29.56,ESE,104,0.0,2.0,93,0.00,,FEW200,0.00,VWS V14.00,2013-03-22 06:45:00,
2013-03-22 02:50:00,20.7,19.0,29.56,South,180,0.0,2.0,93,0.00,,FEW200,0.00,VWS V14.00,2013-03-22 06:50:00,
2013-03-22 02:55:00,20.7,19.0,29.56,South,180,0.0,2.0,93,0.00,,FEW200,0.00,VWS V14.00,2013-03-22 06:55:00,
2013-03-22 03:00:00,20.7,19.0,29.56,South,180,0.0,1.0,93,0.00,,FEW200,0.00,VWS V14.00,2013-03-22 07:00:00,
2013-03-22 03:05:00,20.9,19.2,29.55,South,180,0.0,1.0,93,0.00,,FEW200,0.00,VWS V14.00,2013-03-22 07:05:00,
2013-03-22 03:10:00,21.2,19.5,29.55,West,277,0.0,2.0,93,0.00,,FEW200,0.00,VWS V14.00,2013-03-22 07:10:00,
2013-03-22 03:15:00,21.4,19.7,29.55,West,279,0.0,2.0,93,0.00,,SCT020,0.00,VWS V14.00,2013-03-22 07:15:00,
2013-03-22 03:20:00,21.8,20.3,29.55,WNW,286,0.0,3.0,94,0.00,,SCT020,0.00,VWS V14.00,2013-03-22 07:20:00,
2013-03-22 03:25:00,22.1,20.6,29.55,WNW,286,0.0,3.0,94,0.00,,SCT020,0.00,VWS V14.00,2013-03-22 07:25:00,
2013-03-22 03:30:00,22.2,20.5,29.55,WNW,286,0.0,0.0,93,0.00,,SCT020,0.00,VWS V14.00,2013-03-22 07:30:00,
2013-03-22 03:35:00,22.4,20.7,29.55,WNW,286,0.0,0.0,93,0.00,,SCT020,0.00,VWS V14.00,2013-03-22 07:35:00,
2013-03-22 03:40:00,22.5,20.8,29.55,WNW,286,0.0,2.0,93,0.00,,SCT020,0.00,VWS V14.00,2013-03-22 07:40:00,
2013-03-22 03:45:00,22.7,20.7,29.55,NW,311,0.0,2.0,92,0.00,,SCT020,0.00,VWS V14.00,2013-03-22 07:45:00,
2013-03-22 03:50:00,22.8,20.8,29.55,NW,311,0.0,2.0,92,0.00,,SCT020,0.00,VWS V14.00,2013-03-22 07:50:00,
2013-03-22 03:55:00,22.9,20.9,29.55,WSW,244,2.0,3.0,92,0.00,,SCT020,0.00,VWS V14.00,2013-03-22 07:55:00,
2013-03-22 04:00:00,23.0,20.8,29.55,West,279,0.0,3.0,91,0.00,,SCT200,0.00,VWS V14.00,2013-03-22 08:00:00,
2013-03-22 04:05:00,23.2,21.0,29.55,NE,40,0.0,3.0,91,0.00,,SCT200,0.00,VWS V14.00,2013-03-22 08:05:00,
2013-03-22 04:10:00,23.3,21.1,29.55,NE,40,0.0,3.0,91,0.00,,SCT200,0.00,VWS V14.00,2013-03-22 08:10:00,
2013-03-22 04:15:00,23.4,20.9,29.55,NE,40,0.0,3.0,90,0.00,,SCT200,0.00,VWS V14.00,2013-03-22 08:15:00,
2013-03-22 04:20:00,23.5,20.7,29.55,North,5,0.0,5.0,89,0.00,,SCT200,0.00,VWS V14.00,2013-03-22 08:20:00,
2013-03-22 04:25:00,23.7,20.9,29.55,NE,53,2.0,5.0,89,0.00,,SCT200,0.00,VWS V14.00,2013-03-22 08:25:00,
2013-03-22 04:30:00,23.9,20.9,29.55,NNE,32,0.0,4.0,88,0.00,,SCT200,0.00,VWS V14.00,2013-03-22 08:30:00,
2013-03-22 04:35:00,24.0,20.7,29.55,NNE,32,0.0,4.0,87,0.00,,SCT200,0.00,VWS V14.00,2013-03-22 08:35:00,
2013-03-22 04:40:00,24.1,20.8,29.55,NNE,32,0.0,4.0,87,0.00,,SCT200,0.00,VWS V14.00,2013-03-22 08:40:00,
2013-03-22 04:45:00,24.2,20.6,29.55,North,355,1.0,4.0,86,0.00,,SCT200,0.00,VWS V14.00,2013-03-22 08:45:00,
2013-03-22 04:50:00,24.4,20.5,29.55,NE,55,1.0,4.0,85,0.00,,SCT200,0.00,VWS V14.00,2013-03-22 08:50:00,
2013-03-22 04:55:00,24.5,20.4,29.56,East,82,2.0,4.0,84,0.00,,SCT200,0.00,VWS V14.00,2013-03-22 08:55:00,
2013-03-22 05:00:00,24.5,20.4,29.56,NNE,28,0.0,2.0,84,0.00,,SCT200,0.00,VWS V14.00,2013-03-22 09:00:00,
2013-03-22 05:05:00,24.7,20.3,29.56,SSE,161,1.0,3.0,83,0.00,,SCT200,0.00,VWS V14.00,2013-03-22 09:05:00,
2013-03-22 05:10:00,24.7,20.0,29.56,WSW,258,1.0,3.0,82,0.00,,SCT200,0.00,VWS V14.00,2013-03-22 09:10:00,
2013-03-22 05:15:00,24.8,20.1,29.56,NE,42,1.0,4.0,82,0.00,,SCT200,0.00,VWS V14.00,2013-03-22 09:15:00,
2013-03-22 05:20:00,24.9,19.9,29.56,WNW,290,0.0,4.0,81,0.00,,SCT200,0.00,VWS V14.00,2013-03-22 09:20:00,
2013-03-22 05:25:00,25.0,20.0,29.56,NW,308,2.0,4.0,81,0.00,,SCT200,0.00,VWS V14.00,2013-03-22 09:25:00,
2013-03-22 05:30:00,25.0,19.7,29.56,NW,305,1.0,3.0,80,0.00,,SCT200,0.00,VWS V14.00,2013-03-22 09:30:00,
2013-03-22 05:35:00,25.1,19.5,29.56,NE,34,0.0,4.0,79,0.00,,SCT200,0.00,VWS V14.00,2013-03-22 09:35:00,
2013-03-22 05:40:00,25.1,19.5,29.56,WNW,301,0.0,6.0,79,0.00,,SCT200,0.00,VWS V14.00,2013-03-22 09:40:00,
2013-03-22 05:45:00,25.3,19.4,29.56,ENE,61,3.0,6.0,78,0.00,,SCT200,0.00,VWS V14.00,2013-03-22 09:45:00,
2013-03-22 05:50:00,25.4,19.5,29.56,WNW,290,0.0,6.0,78,0.00,,SCT200,0.00,VWS V14.00,2013-03-22 09:50:00,
2013-03-22 05:55:00,25.6,19.4,29.56,NE,55,2.0,6.0,77,0.00,,SCT200,0.00,VWS V14.00,2013-03-22 09:55:00,
2013-03-22 06:00:00,25.6,19.4,29.56,East,81,1.0,3.0,77,0.00,,SCT200,0.00,VWS V14.00,2013-03-22 10:00:00,
2013-03-22 06:05:00,25.6,19.1,29.56,East,94,1.0,3.0,76,0.00,,SCT200,0.00,VWS V14.00,2013-03-22 10:05:00,
2013-03-22 06:10:00,25.7,19.2,29.57,NW,325,2.0,3.0,76,0.00,,SCT200,0.00,VWS V14.00,2013-03-22 10:10:00,
2013-03-22 06:15:00,25.8,19.3,29.57,NW,325,0.0,3.0,76,0.00,,SCT200,0.00,VWS V14.00,2013-03-22 10:15:00,
2013-03-22 06:20:00,25.8,19.3,29.57,NW,311,0.0,3.0,76,0.00,,SCT200,0.00,VWS V14.00,2013-03-22 10:20:00,
2013-03-22 06:25:00,25.8,19.3,29.57,WNW,284,1.0,3.0,76,0.00,,SCT200,0.00,VWS V14.00,2013-03-22 10:25:00,
2013-03-22 06:30:00,25.8,19.3,29.57,NNW,343,1.0,4.0,76,0.00,,SCT200,0.00,VWS V14.00,2013-03-22 10:30:00,
2013-03-22 06:35:00,25.8,19.3,29.57,SSW,200,0.0,4.0,76,0.00,,SCT200,0.00,VWS V14.00,2013-03-22 10:35:00,
2013-03-22 06:40:00,25.8,19.3,29.57,NW,310,0.0,5.0,76,0.00,,SCT200,0.00,VWS V14.00,2013-03-22 10:40:00,
2013-03-22 06:45:00,25.8,19.3,29.57,NE,44,2.0,5.0,76,0.00,,SCT200,0.00,VWS V14.00,2013-03-22 10:45:00,
2013-03-22 06:50:00,25.9,19.4,29.57,NE,44,2.0,5.0,76,0.00,,SCT200,0.00,VWS V14.00,2013-03-22 10:50:00,
2013-03-22 06:55:00,26.0,19.2,29.57,NE,44,1.0,5.0,75,0.00,,SCT200,0.00,VWS V14.00,2013-03-22 10:55:00,
2013-03-22 07:00:00,26.1,19.0,29.57,NNE,21,0.0,2.0,74,0.00,,SCT200,0.00,VWS V14.00,2013-03-22 11:00:00,
2013-03-22 07:05:00,26.3,19.1,29.57,West,279,0.0,3.0,74,0.00,,SCT200,0.00,VWS V14.00,2013-03-22 11:05:00,
2013-03-22 07:10:00,26.5,19.0,29.58,WNW,288,0.0,4.0,73,0.00,,SCT200,0.00,VWS V14.00,2013-03-22 11:10:00,
2013-03-22 07:15:00,26.6,19.1,29.57,West,281,1.0,4.0,73,0.00,,SCT200,0.00,VWS V14.00,2013-03-22 11:15:00,
2013-03-22 07:20:00,26.8,19.0,29.58,WNW,286,0.0,4.0,72,0.00,,SCT200,0.00,VWS V14.00,2013-03-22 11:20:00,
2013-03-22 07:25:00,26.9,19.1,29.58,WNW,284,0.0,4.0,72,0.00,,SCT200,0.00,VWS V14.00,2013-03-22 11:25:00,
2013-03-22 07:30:00,27.1,19.3,29.58,NE,49,0.0,2.0,72,0.00,,SCT200,0.00,VWS V14.00,2013-03-22 11:30:00,
2013-03-22 07:35:00,27.3,19.1,29.58,NW,321,3.0,4.0,71,0.00,,SCT200,0.00,VWS V14.00,2013-03-22 11:35:00,
2013-03-22 07:40:00,27.5,19.4,29.58,North,351,0.0,5.0,71,0.00,,SCT200,0.00,VWS V14.00,2013-03-22 11:40:00,
2013-03-22 07:45:00,27.7,19.2,29.59,North,349,2.0,5.0,70,0.00,,SCT200,0.00,VWS V14.00,2013-03-22 11:45:00,
2013-03-22 07:50:00,27.9,19.1,29.59,NNE,13,1.0,5.0,69,0.00,,SCT200,0.00,VWS V14.00,2013-03-22 11:50:00,
2013-03-22 07:55:00,28.1,19.3,29.59,North,9,0.0,5.0,69,0.00,,SCT200,0.00,VWS V14.00,2013-03-22 11:55:00,
2013-03-22 08:00:00,28.3,19.1,29.59,NNW,338,2.0,4.0,68,0.00,,SCT200,0.00,VWS V14.00,2013-03-22 12:00:00,
2013-03-22 08:05:00,28.4,18.9,29.59,ENE,75,0.0,4.0,67,0.00,,SCT200,0.00,VWS V14.00,2013-03-22 12:05:00,
2013-03-22 08:10:00,28.6,19.0,29.59,SE,143,0.0,5.0,67,0.00,,SCT200,0.00,VWS V14.00,2013-03-22 12:10:00,
2013-03-22 08:15:00,28.8,19.2,29.59,NNW,341,0.0,5.0,67,0.00,,SCT200,0.00,VWS V14.00,2013-03-22 12:15:00,
2013-03-22 08:20:00,28.9,19.0,29.59,WSW,246,0.0,5.0,66,0.00,,SCT200,0.00,VWS V14.00,2013-03-22 12:20:00,
2013-03-22 08:25:00,29.1,19.2,29.59,West,275,0.0,5.0,66,0.00,,SCT200,0.00,VWS V14.00,2013-03-22 12:25:00,
2013-03-22 08:30:00,29.3,19.0,29.60,NW,314,0.0,3.0,65,0.00,,SCT200,0.00,VWS V14.00,2013-03-22 12:30:00,
2013-03-22 08:35:00,29.5,19.2,29.60,WSW,241,2.0,5.0,65,0.00,,SCT200,0.00,VWS V14.00,2013-03-22 12:35:00,
2013-03-22 08:40:00,29.6,18.9,29.60,WNW,284,1.0,6.0,64,0.00,,SCT200,0.00,VWS V14.00,2013-03-22 12:40:00,
2013-03-22 08:45:00,29.7,19.0,29.60,NW,305,6.0,6.0,64,0.00,,SCT200,0.00,VWS V14.00,2013-03-22 12:45:00,
2013-03-22 08:50:00,29.7,18.7,29.60,WNW,303,5.0,6.0,63,0.00,,SCT200,0.00,VWS V14.00,2013-03-22 12:50:00,
2013-03-22 08:55:00,29.9,18.9,29.60,South,171,0.0,6.0,63,0.00,,SCT200,0.00,VWS V14.00,2013-03-22 12:55:00,
2013-03-22 09:00:00,30.0,19.0,29.60,NNE,29,0.0,4.0,63,0.00,,SCT200,0.00,VWS V14.00,2013-03-22 13:00:00,
2013-03-22 09:05:00,30.1,19.0,29.60,WSW,251,3.0,5.0,63,0.00,,SCT200,0.00,VWS V14.00,2013-03-22 13:05:00,
2013-03-22 09:10:00,30.2,19.1,29.60,WNW,298,0.0,5.0,63,0.00,,SCT200,0.00,VWS V14.00,2013-03-22 13:10:00,
2013-03-22 09:15:00,30.3,18.9,29.60,ENE,63,0.0,5.0,62,0.00,,SCT200,0.00,VWS V14.00,2013-03-22 13:15:00,
2013-03-22 09:20:00,30.5,19.0,29.60,NW,318,3.0,5.0,62,0.00,,SCT200,0.00,VWS V14.00,2013-03-22 13:20:00,
2013-03-22 09:25:00,30.7,19.2,29.60,ENE,78,1.0,5.0,62,0.00,,SCT200,0.00,VWS V14.00,2013-03-22 13:25:00,
2013-03-22 09:30:00,30.9,19.4,29.60,WNW,301,0.0,5.0,62,0.00,,SCT200,0.00,VWS V14.00,2013-03-22 13:30:00,
2013-03-22 09:35:00,30.9,19.4,29.60,NW,316,4.0,5.0,62,0.00,,SCT200,0.00,VWS V14.00,2013-03-22 13:35:00,
2013-03-22 09:40:00,31.1,19.2,29.60,NNE,32,1.0,8.0,61,0.00,,SCT200,0.00,VWS V14.00,2013-03-22 13:40:00,
2013-03-22 09:45:00,31.3,19.4,29.60,NE,45,1.0,8.0,61,0.00,,SCT200,0.00,VWS V14.00,2013-03-22 13:45:00,
2013-03-22 09:50:00,31.4,19.5,29.60,NW,308,1.0,8.0,61,0.00,,SCT200,0.00,VWS V14.00,2013-03-22 13:50:00,
2013-03-22 09:55:00,31.7,19.8,29.60,NE,41,0.0,8.0,61,0.00,,SCT200,0.00,VWS V14.00,2013-03-22 13:55:00,
2013-03-22 10:00:00,32.0,20.1,29.60,WNW,297,1.0,4.0,61,0.00,,SCT200,0.00,VWS V14.00,2013-03-22 14:00:00,
2013-03-22 10:05:00,32.5,20.2,29.60,NE,35,5.0,5.0,60,0.00,,FEW250,0.00,VWS V14.00,2013-03-22 14:05:00,
2013-03-22 10:10:00,32.8,20.1,29.60,NW,313,0.0,7.0,59,0.00,,FEW250,0.00,VWS V14.00,2013-03-22 14:10:00,
2013-03-22 10:14:00,33.1,20.4,29.60,WNW,299,0.0,7.0,59,0.00,,FEW250,0.00,VWS V14.00,2013-03-22 14:14:00,
2013-03-22 10:19:00,33.3,20.1,29.60,NW,323,3.0,7.0,58,0.00,,FEW250,0.00,VWS V14.00,2013-03-22 14:19:00,
2013-03-22 10:24:00,33.4,20.6,29.60,West,275,4.0,8.0,59,0.00,,FEW250,0.00,VWS V14.00,2013-03-22 14:24:00,
2013-03-22 10:29:00,33.8,20.6,29.60,NNE,15,3.0,7.0,58,0.00,,FEW250,0.00,VWS V14.00,2013-03-22 14:29:00,
2013-03-22 10:34:00,34.1,20.9,29.60,West,277,1.0,7.0,58,0.00,,FEW250,0.00,VWS V14.00,2013-03-22 14:34:00,
2013-03-22 10:39:00,33.5,20.3,29.60,North,10,1.0,7.0,58,0.00,,FEW250,0.00,VWS V14.00,2013-03-22 14:39:00,
2013-03-22 10:44:00,33.6,20.0,29.60,ESE,109,0.0,7.0,57,0.00,,FEW250,0.00,VWS V14.00,2013-03-22 14:44:00,
2013-03-22 10:49:00,33.9,20.3,29.60,NNW,334,2.0,7.0,57,0.00,,FEW250,0.00,VWS V14.00,2013-03-22 14:49:00,
2013-03-22 10:54:00,33.8,19.8,29.60,WNW,303,3.0,8.0,56,0.00,,FEW250,0.00,VWS V14.00,2013-03-22 14:54:00,
2013-03-22 10:59:00,34.0,20.0,29.60,North,5,1.0,13.0,56,0.00,,FEW250,0.00,VWS V14.00,2013-03-22 14:59:00,
2013-03-22 11:04:00,34.4,19.9,29.60,West,261,3.0,13.0,55,0.00,,FEW065,0.00,VWS V14.00,2013-03-22 15:04:00,
2013-03-22 11:09:00,34.8,20.7,29.59,ENE,76,1.0,13.0,56,0.00,,FEW065,0.00,VWS V14.00,2013-03-22 15:09:00,
2013-03-22 11:14:00,35.0,20.5,29.59,NE,45,5.0,13.0,55,0.00,,FEW065,0.00,VWS V14.00,2013-03-22 15:14:00,
2013-03-22 11:19:00,34.7,19.8,29.59,ENE,69,3.0,13.0,54,0.00,,FEW065,0.00,VWS V14.00,2013-03-22 15:19:00,
2013-03-22 11:24:00,34.6,19.7,29.59,WNW,288,3.0,13.0,54,0.00,,FEW065,0.00,VWS V14.00,2013-03-22 15:24:00,
2013-03-22 11:29:00,34.7,19.3,29.59,NE,37,2.0,7.0,53,0.00,,FEW065,0.00,VWS V14.00,2013-03-22 15:29:00,
2013-03-22 11:34:00,36.0,20.5,29.59,WNW,282,1.0,8.0,53,0.00,,FEW065,0.00,VWS V14.00,2013-03-22 15:34:00,
2013-03-22 11:39:00,35.9,20.0,29.59,ENE,59,5.0,8.0,52,0.00,,FEW065,0.00,VWS V14.00,2013-03-22 15:39:00,
2013-03-22 11:44:00,36.4,20.5,29.59,WSW,239,1.0,8.0,52,0.00,,FEW065,0.00,VWS V14.00,2013-03-22 15:44:00,
2013-03-22 11:49:00,36.8,20.4,29.59,NE,44,2.0,8.0,51,0.00,,FEW065,0.00,VWS V14.00,2013-03-22 15:49:00,
2013-03-22 11:54:00,36.8,19.5,29.59,East,95,5.0,8.0,49,0.00,,FEW065,0.00,VWS V14.00,2013-03-22 15:54:00,
2013-03-22 11:59:00,36.1,18.8,29.59,WSW,241,2.0,8.0,49,0.00,,FEW065,0.00,VWS V14.00,2013-03-22 15:59:00,
2013-03-22 12:04:00,35.7,18.0,29.59,West,265,4.0,8.0,48,0.00,,FEW065,0.00,VWS V14.00,2013-03-22 16:04:00,
2013-03-22 12:09:00,35.6,18.8,29.58,West,263,2.0,9.0,50,0.00,,FEW065,0.00,VWS V14.00,2013-03-22 16:09:00,
2013-03-22 12:14:00,36.2,18.9,29.58,NNW,340,1.0,9.0,49,0.00,,FEW065,0.00,VWS V14.00,2013-03-22 16:14:00,
2013-03-22 12:19:00,36.5,18.7,29.58,NE,36,3.0,9.0,48,0.00,,FEW065,0.00,VWS V14.00,2013-03-22 16:19:00,
2013-03-22 12:27:00,36.4,18.6,29.58,NE,36,2.0,9.0,48,0.00,,FEW065,0.00,VWS V14.00,2013-03-22 16:27:00,
2013-03-22 12:32:00,36.7,19.4,29.58,NW,315,5.0,6.0,49,0.00,,FEW065,0.00,VWS V14.00,2013-03-22 16:32:00,
2013-03-22 12:37:00,37.5,19.6,29.58,NW,321,1.0,8.0,48,0.00,,FEW065,0.00,VWS V14.00,2013-03-22 16:37:00,
2013-03-22 12:42:00,37.9,19.5,29.58,NNW,337,0.0,8.0,47,0.00,,FEW065,0.00,VWS V14.00,2013-03-22 16:42:00,
2013-03-22 12:47:00,38.2,18.8,29.58,NNE,32,2.0,12.0,45,0.00,,FEW065,0.00,VWS V14.00,2013-03-22 16:47:00,
2013-03-22 12:52:00,37.1,18.8,29.57,West,269,6.0,12.0,47,0.00,,FEW065,0.00,VWS V14.00,2013-03-22 16:52:00,
2013-03-22 12:57:00,36.6,19.3,29.57,West,267,3.0,4.0,49,0.00,,FEW065,0.00,VWS V14.00,2013-03-22 16:57:00,
2013-03-22 13:02:00,36.7,20.3,29.57,WNW,286,3.0,8.0,51,0.00,,SCT060,0.00,VWS V14.00,2013-03-22 17:02:00,
2013-03-22 13:07:00,36.5,19.2,29.57,West,263,5.0,10.0,49,0.00,,SCT060,0.00,VWS V14.00,2013-03-22 17:07:00,
2013-03-22 13:12:00,36.4,19.1,29.57,SW,234,3.0,10.0,49,0.00,,SCT060,0.00,VWS V14.00,2013-03-22 17:12:00,
2013-03-22 13:17:00,36.5,19.6,29.57,SSW,205,6.0,10.0,50,0.00,,SCT060,0.00,VWS V14.00,2013-03-22 17:17:00,
2013-03-22 13:22:00,37.0,19.1,29.57,SW,219,9.0,10.0,48,0.00,,SCT060,0.00,VWS V14.00,2013-03-22 17:22:00,
2013-03-22 13:27:00,36.4,19.1,29.57,SW,236,3.0,3.0,49,0.00,,SCT060,0.00,VWS V14.00,2013-03-22 17:27:00,
2013-03-22 13:32:00,36.2,18.9,29.57,WSW,242,3.0,6.0,49,0.00,,SCT060,0.00,VWS V14.00,2013-03-22 17:32:00,
2013-03-22 13:37:00,36.9,19.5,29.56,SW,234,0.0,7.0,49,0.00,,SCT060,0.00,VWS V14.00,2013-03-22 17:37:00,
2013-03-22 13:42:00,37.3,19.9,29.56,West,278,7.0,8.0,49,0.00,,SCT060,0.00,VWS V14.00,2013-03-22 17:42:00,
2013-03-22 13:47:00,36.8,19.5,29.56,WNW,293,3.0,8.0,49,0.00,,SCT060,0.00,VWS V14.00,2013-03-22 17:47:00,
2013-03-22 13:53:00,36.7,19.4,29.56,West,266,4.0,8.0,49,0.00,,SCT060,0.00,VWS V14.00,2013-03-22 17:53:00,
2013-03-22 13:57:00,37.9,20.0,29.56,SSW,199,5.0,7.0,48,0.00,,SCT060,0.00,VWS V14.00,2013-03-22 17:57:00,
2013-03-22 14:03:00,38.1,19.7,29.55,South,175,2.0,11.0,47,0.00,,BKN060,0.00,VWS V14.00,2013-03-22 18:03:00,
2013-03-22 14:08:00,37.7,19.3,29.55,ENE,69,2.0,11.0,47,0.00,,BKN060,0.00,VWS V14.00,2013-03-22 18:08:00,
2013-03-22 14:13:00,37.2,19.8,29.55,SW,227,0.0,11.0,49,0.00,,BKN060,0.00,VWS V14.00,2013-03-22 18:13:00,
2013-03-22 14:17:00,37.1,19.7,29.55,WSW,256,2.0,11.0,49,0.00,,BKN060,0.00,VWS V14.00,2013-03-22 18:17:00,
2013-03-22 14:22:00,37.2,19.8,29.55,WSW,238,2.0,11.0,49,0.00,,BKN060,0.00,VWS V14.00,2013-03-22 18:22:00,
2013-03-22 14:28:00,37.0,19.1,29.55,WNW,287,1.0,4.0,48,0.00,,BKN060,0.00,VWS V14.00,2013-03-22 18:28:00,
2013-03-22 14:33:00,37.0,19.1,29.55,West,279,1.0,13.0,48,0.00,,BKN060,0.00,VWS V14.00,2013-03-22 18:33:00,
2013-03-22 14:38:00,37.0,19.1,29.55,NNW,347,0.0,13.0,48,0.00,,BKN060,0.00,VWS V14.00,2013-03-22 18:38:00,
2013-03-22 14:43:00,37.1,18.8,29.55,West,267,2.0,13.0,47,0.00,,BKN060,0.00,VWS V14.00,2013-03-22 18:43:00,
2013-03-22 14:48:00,37.3,19.4,29.55,WNW,295,1.0,13.0,48,0.00,,BKN060,0.00,VWS V14.00,2013-03-22 18:48:00,
2013-03-22 14:53:00,37.3,19.4,29.55,West,277,7.0,13.0,48,0.00,,BKN060,0.00,VWS V14.00,2013-03-22 18:53:00,
2013-03-22 14:58:00,37.3,18.9,29.55,SW,224,7.0,7.0,47,0.00,,BKN060,0.00,VWS V14.00,2013-03-22 18:58:00,
2013-03-22 15:03:00,37.1,21.6,29.55,SSW,198,7.0,10.0,53,0.00,,BKN080,0.00,VWS V14.00,2013-03-22 19:03:00,
2013-03-22 15:08:00,36.3,22.1,29.55,SSW,210,4.0,11.0,56,0.00,,BKN080,0.00,VWS V14.00,2013-03-22 19:08:00,
2013-03-22 15:13:00,36.1,22.4,29.55,SW,228,2.0,11.0,57,0.00,,BKN080,0.00,VWS V14.00,2013-03-22 19:13:00,
2013-03-22 15:18:00,36.8,23.0,29.55,WSW,252,4.0,11.0,57,0.00,,BKN080,0.00,VWS V14.00,2013-03-22 19:18:00,
2013-03-22 15:23:00,37.0,22.8,29.55,WNW,288,3.0,11.0,56,0.00,,BKN080,0.00,VWS V14.00,2013-03-22 19:23:00,
2013-03-22 15:28:00,37.0,22.4,29.55,West,259,3.0,4.0,55,0.00,,BKN080,0.00,VWS V14.00,2013-03-22 19:28:00,
2013-03-22 15:33:00,36.8,23.0,29.55,WSW,241,3.0,7.0,57,0.00,,BKN080,0.00,VWS V14.00,2013-03-22 19:33:00,
2013-03-22 15:38:00,36.2,22.5,29.55,WSW,244,6.0,11.0,57,0.00,,BKN080,0.00,VWS V14.00,2013-03-22 19:38:00,
2013-03-22 15:43:00,36.2,22.9,29.55,NW,315,8.0,11.0,58,0.00,,BKN080,0.00,VWS V14.00,2013-03-22 19:43:00,
2013-03-22 15:48:00,36.2,22.9,29.55,WNW,285,0.0,11.0,58,0.00,,BKN080,0.00,VWS V14.00,2013-03-22 19:48:00,
2013-03-22 15:53:00,36.2,22.9,29.56,WSW,250,1.0,11.0,58,0.00,,BKN080,0.00,VWS V14.00,2013-03-22 19:53:00,
2013-03-22 15:58:00,36.4,23.0,29.56,South,177,5.0,8.0,58,0.00,,BKN080,0.00,VWS V14.00,2013-03-22 19:58:00,
2013-03-22 16:03:00,36.2,22.9,29.56,WSW,238,4.0,10.0,58,0.00,,BKN080,0.00,VWS V14.00,2013-03-22 20:03:00,
2013-03-22 16:08:00,36.0,22.7,29.55,SW,216,3.0,10.0,58,0.00,,BKN080,0.00,VWS V14.00,2013-03-22 20:08:00,
2013-03-22 16:13:00,36.1,23.2,29.56,SSW,207,6.0,12.0,59,0.00,,BKN080,0.00,VWS V14.00,2013-03-22 20:13:00,
2013-03-22 16:18:00,35.9,23.8,29.56,WSW,247,5.0,12.0,61,0.00,,BKN080,0.00,VWS V14.00,2013-03-22 20:18:00,
2013-03-22 16:23:00,35.5,23.8,29.56,SW,233,5.0,12.0,62,0.00,,BKN080,0.00,VWS V14.00,2013-03-22 20:23:00,
2013-03-22 16:28:00,35.4,23.7,29.56,South,179,0.0,2.0,62,0.00,,BKN080,0.00,VWS V14.00,2013-03-22 20:28:00,
2013-03-22 16:33:00,35.4,24.1,29.56,SW,222,1.0,5.0,63,0.00,,BKN080,0.00,VWS V14.00,2013-03-22 20:33:00,
2013-03-22 16:38:00,35.6,24.3,29.56,WNW,284,0.0,7.0,63,0.00,,BKN080,0.00,VWS V14.00,2013-03-22 20:38:00,
2013-03-22 16:42:00,35.8,24.5,29.56,SSW,198,0.0,7.0,63,0.00,,BKN080,0.00,VWS V14.00,2013-03-22 20:42:00,
2013-03-22 16:48:00,35.9,23.0,29.56,South,191,2.0,8.0,59,0.00,,BKN080,0.00,VWS V14.00,2013-03-22 20:48:00,
2013-03-22 16:53:00,36.1,24.4,29.56,WSW,253,1.0,8.0,62,0.00,,BKN080,0.00,VWS V14.00,2013-03-22 20:53:00,
2013-03-22 16:58:00,36.4,22.2,29.56,WNW,299,4.0,6.0,56,0.00,,BKN080,0.00,VWS V14.00,2013-03-22 20:58:00,
2013-03-22 17:03:00,36.5,21.5,29.56,WSW,248,3.0,7.0,54,0.00,,BKN080,0.00,VWS V14.00,2013-03-22 21:03:00,
2013-03-22 17:08:00,36.6,21.5,29.56,SSW,209,4.0,7.0,54,0.00,,BKN080,0.00,VWS V14.00,2013-03-22 21:08:00,
2013-03-22 17:13:00,36.7,20.8,29.56,West,277,4.0,9.0,52,0.00,,BKN080,0.00,VWS V14.00,2013-03-22 21:13:00,
2013-03-22 17:18:00,36.6,21.1,29.56,SSW,208,0.0,9.0,53,0.00,,BKN080,0.00,VWS V14.00,2013-03-22 21:18:00,
2013-03-22 17:23:00,36.7,20.8,29.56,WSW,237,0.0,9.0,52,0.00,,BKN080,0.00,VWS V14.00,2013-03-22 21:23:00,
2013-03-22 17:27:00,36.6,20.2,29.56,WSW,238,5.0,5.0,51,0.00,,BKN080,0.00,VWS V14.00,2013-03-22 21:27:00,
2013-03-22 17:32:00,36.5,20.1,29.56,WSW,252,2.0,5.0,51,0.00,,BKN080,0.00,VWS V14.00,2013-03-22 21:32:00,
2013-03-22 17:37:00,36.4,21.4,29.56,SW,234,3.0,7.0,54,0.00,,BKN080,0.00,VWS V14.00,2013-03-22 21:37:00,
2013-03-22 17:42:00,36.1,23.6,29.56,SW,232,6.0,8.0,60,0.00,,BKN080,0.00,VWS V14.00,2013-03-22 21:42:00,
2013-03-22 17:47:00,36.3,24.1,29.56,WNW,292,3.0,8.0,61,0.00,,BKN080,0.00,VWS V14.00,2013-03-22 21:47:00,
2013-03-22 17:52:00,36.2,24.8,29.56,WSW,244,1.0,8.0,63,0.00,,BKN080,0.00,VWS V14.00,2013-03-22 21:52:00,
2013-03-22 17:57:00,36.1,25.5,29.56,WSW,244,4.0,5.0,65,0.00,,BKN080,0.00,VWS V14.00,2013-03-22 21:57:00,
2013-03-22 18:02:00,35.9,24.9,29.57,SW,219,0.0,6.0,64,0.00,,SCT075,0.00,VWS V14.00,2013-03-22 22:02:00,
2013-03-22 18:07:00,35.8,24.8,29.57,WNW,293,3.0,6.0,64,0.00,,SCT075,0.00,VWS V14.00,2013-03-22 22:07:00,
2013-03-22 18:12:00,35.7,20.3,29.57,NW,319,0.0,7.0,53,0.00,,SCT075,0.00,VWS V14.00,2013-03-22 22:12:00,
2013-03-22 18:17:00,35.8,18.0,29.57,West,265,0.0,7.0,48,0.00,,SCT075,0.00,VWS V14.00,2013-03-22 22:17:00,
2013-03-22 18:22:00,35.7,18.0,29.57,South,173,5.0,9.0,48,0.00,,SCT075,0.00,VWS V14.00,2013-03-22 22:22:00,
2013-03-22 18:27:00,35.5,17.3,29.57,WNW,300,2.0,6.0,47,0.00,,SCT075,0.00,VWS V14.00,2013-03-22 22:27:00,
2013-03-22 18:32:00,35.2,18.0,29.57,NNW,335,4.0,7.0,49,0.00,,SCT075,0.00,VWS V14.00,2013-03-22 22:32:00,
2013-03-22 18:37:00,35.1,17.4,29.58,NNW,347,4.0,9.0,48,0.00,,SCT075,0.00,VWS V14.00,2013-03-22 22:37:00,
2013-03-22 18:43:00,34.8,17.6,29.58,West,265,1.0,9.0,49,0.00,,SCT075,0.00,VWS V14.00,2013-03-22 22:43:00,
2013-03-22 18:48:00,34.7,17.5,29.58,NNW,345,4.0,9.0,49,0.00,,SCT075,0.00,VWS V14.00,2013-03-22 22:48:00,
2013-03-22 18:53:00,34.4,17.7,29.58,WNW,283,1.0,9.0,50,0.00,,SCT075,0.00,VWS V14.00,2013-03-22 22:53:00,
2013-03-22 18:58:00,34.2,17.5,29.58,West,268,0.0,2.0,50,0.00,,SCT075,0.00,VWS V14.00,2013-03-22 22:58:00,
2013-03-22 19:03:00,33.8,18.0,29.58,West,268,0.0,2.0,52,0.00,,SCT080,0.00,VWS V14.00,2013-03-22 23:03:00,
2013-03-22 19:08:00,33.5,18.2,29.58,West,268,0.0,3.0,53,0.00,,SCT080,0.00,VWS V14.00,2013-03-22 23:08:00,
2013-03-22 19:13:00,33.2,18.4,29.59,West,268,1.0,3.0,54,0.00,,SCT080,0.00,VWS V14.00,2013-03-22 23:13:00,
2013-03-22 19:18:00,32.8,19.3,29.59,West,268,0.0,3.0,57,0.00,,SCT080,0.00,VWS V14.00,2013-03-22 23:18:00,
2013-03-22 19:23:00,32.1,19.0,29.59,West,268,0.0,3.0,58,0.00,,SCT080,0.00,VWS V14.00,2013-03-22 23:23:00,
2013-03-22 19:28:00,31.6,20.5,29.59,West,268,0.0,0.0,63,0.00,,SCT080,0.00,VWS V14.00,2013-03-22 23:28:00,
2013-03-22 19:33:00,31.6,20.8,29.59,West,268,0.0,1.0,64,0.00,,SCT080,0.00,VWS V14.00,2013-03-22 23:33:00,
2013-03-22 19:38:00,31.6,20.8,29.60,West,268,0.0,1.0,64,0.00,,SCT080,0.00,VWS V14.00,2013-03-22 23:38:00,
2013-03-22 19:43:00,31.5,20.7,29.60,West,268,0.0,1.0,64,0.00,,SCT080,0.00,VWS V14.00,2013-03-22 23:43:00,
2013-03-22 19:48:00,31.2,20.5,29.60,West,268,0.0,1.0,64,0.00,,SCT080,0.00,VWS V14.00,2013-03-22 23:48:00,
2013-03-22 19:53:00,31.0,19.9,29.60,West,268,0.0,1.0,63,0.00,,SCT080,0.00,VWS V14.00,2013-03-22 23:53:00,
2013-03-22 19:58:00,30.7,20.0,29.60,West,268,0.0,0.0,64,0.00,,SCT080,0.00,VWS V14.00,2013-03-22 23:58:00,
2013-03-22 20:03:00,30.5,20.1,29.60,West,268,0.0,0.0,65,0.00,,FEW080,0.00,VWS V14.00,2013-03-23 00:03:00,
2013-03-22 20:08:00,30.2,20.2,29.60,West,268,0.0,0.0,66,0.00,,FEW080,0.00,VWS V14.00,2013-03-23 00:08:00,
2013-03-22 20:13:00,29.9,19.9,29.61,West,268,0.0,0.0,66,0.00,,FEW080,0.00,VWS V14.00,2013-03-23 00:13:00,
2013-03-22 20:18:00,29.7,20.1,29.61,West,268,0.0,0.0,67,0.00,,FEW080,0.00,VWS V14.00,2013-03-23 00:18:00,
2013-03-22 20:23:00,29.4,19.8,29.61,West,268,0.0,0.0,67,0.00,,FEW080,0.00,VWS V14.00,2013-03-23 00:23:00,
2013-03-22 20:28:00,29.1,19.9,29.61,West,268,0.0,0.0,68,0.00,,FEW080,0.00,VWS V14.00,2013-03-23 00:28:00,
2013-03-22 20:33:00,28.9,20.0,29.61,West,268,0.0,0.0,69,0.00,,FEW080,0.00,VWS V14.00,2013-03-23 00:33:00,
2013-03-22 20:38:00,28.7,20.2,29.61,West,268,0.0,0.0,70,0.00,,FEW080,0.00,VWS V14.00,2013-03-23 00:38:00,
2013-03-22 20:43:00,28.5,20.3,29.61,West,268,0.0,0.0,71,0.00,,FEW080,0.00,VWS V14.00,2013-03-23 00:43:00,
2013-03-22 20:48:00,28.3,20.8,29.61,West,268,0.0,0.0,73,0.00,,FEW080,0.00,VWS V14.00,2013-03-23 00:48:00,
2013-03-22 20:53:00,28.1,20.9,29.61,West,268,0.0,0.0,74,0.00,,FEW080,0.00,VWS V14.00,2013-03-23 00:53:00,
2013-03-22 20:58:00,28.0,20.8,29.61,West,268,0.0,0.0,74,0.00,,FEW080,0.00,VWS V14.00,2013-03-23 00:58:00,
2013-03-22 21:03:00,27.8,20.6,29.61,West,268,0.0,0.0,74,0.00,,CLR,0.00,VWS V14.00,2013-03-23 01:03:00,
2013-03-22 21:08:00,27.7,20.8,29.61,West,268,0.0,0.0,75,0.00,,CLR,0.00,VWS V14.00,2013-03-23 01:08:00,
2013-03-22 21:13:00,27.5,20.6,29.61,West,268,0.0,0.0,75,0.00,,CLR,0.00,VWS V14.00,2013-03-23 01:13:00,
2013-03-22 21:18:00,27.3,20.8,29.61,West,268,0.0,0.0,76,0.00,,CLR,0.00,VWS V14.00,2013-03-23 01:18:00,
2013-03-22 21:23:00,27.2,20.6,29.61,West,268,0.0,0.0,76,0.00,,CLR,0.00,VWS V14.00,2013-03-23 01:23:00,
2013-03-22 21:28:00,27.0,20.8,29.61,West,268,0.0,0.0,77,0.00,,CLR,0.00,VWS V14.00,2013-03-23 01:28:00,
2013-03-22 21:33:00,26.9,20.7,29.61,West,268,0.0,0.0,77,0.00,,CLR,0.00,VWS V14.00,2013-03-23 01:33:00,
2013-03-22 21:38:00,26.7,20.5,29.61,West,268,0.0,0.0,77,0.00,,CLR,0.00,VWS V14.00,2013-03-23 01:38:00,
2013-03-22 21:43:00,26.6,20.4,29.61,West,268,0.0,0.0,77,0.00,,CLR,0.00,VWS V14.00,2013-03-23 01:43:00,
2013-03-22 21:48:00,26.5,20.3,29.61,West,268,0.0,0.0,77,0.00,,CLR,0.00,VWS V14.00,2013-03-23 01:48:00,
2013-03-22 21:53:00,26.3,20.4,29.61,West,268,0.0,0.0,78,0.00,,CLR,0.00,VWS V14.00,2013-03-23 01:53:00,
2013-03-22 21:58:00,26.1,20.2,29.61,West,268,0.0,0.0,78,0.00,,CLR,0.00,VWS V14.00,2013-03-23 01:58:00,
2013-03-22 22:03:00,26.0,20.1,29.61,West,268,0.0,0.0,78,0.00,,CLR,0.00,VWS V14.00,2013-03-23 02:03:00,
2013-03-22 22:08:00,25.8,20.2,29.61,West,268,0.0,0.0,79,0.00,,CLR,0.00,VWS V14.00,2013-03-23 02:08:00,
2013-03-22 22:13:00,25.7,20.1,29.61,West,268,0.0,0.0,79,0.00,,CLR,0.00,VWS V14.00,2013-03-23 02:13:00,
2013-03-22 22:18:00,25.6,20.3,29.61,West,268,0.0,0.0,80,0.00,,CLR,0.00,VWS V14.00,2013-03-23 02:18:00,
2013-03-22 22:23:00,25.5,20.2,29.61,West,268,0.0,0.0,80,0.00,,CLR,0.00,VWS V14.00,2013-03-23 02:23:00,
2013-03-22 22:28:00,25.4,20.1,29.61,West,268,0.0,0.0,80,0.00,,CLR,0.00,VWS V14.00,2013-03-23 02:28:00,
2013-03-22 22:33:00,25.3,20.0,29.61,West,268,0.0,0.0,80,0.00,,CLR,0.00,VWS V14.00,2013-03-23 02:33:00,
2013-03-22 22:38:00,25.2,20.2,29.61,West,268,0.0,0.0,81,0.00,,CLR,0.00,VWS V14.00,2013-03-23 02:38:00,
2013-03-22 22:43:00,25.2,20.5,29.61,West,268,0.0,0.0,82,0.00,,CLR,0.00,VWS V14.00,2013-03-23 02:43:00,
2013-03-22 22:48:00,25.2,20.5,29.61,West,268,0.0,0.0,82,0.00,,CLR,0.00,VWS V14.00,2013-03-23 02:48:00,
2013-03-22 22:53:00,25.2,20.5,29.61,West,268,0.0,0.0,82,0.00,,CLR,0.00,VWS V14.00,2013-03-23 02:53:00,
2013-03-22 22:58:00,25.2,20.8,29.61,West,268,0.0,1.0,83,0.00,,CLR,0.00,VWS V14.00,2013-03-23 02:58:00,
2013-03-22 23:03:00,25.1,20.7,29.61,West,268,0.0,1.0,83,0.00,,FEW080,0.00,VWS V14.00,2013-03-23 03:03:00,
2013-03-22 23:08:00,25.2,20.8,29.61,West,268,2.0,2.0,83,0.00,,FEW080,0.00,VWS V14.00,2013-03-23 03:08:00,
2013-03-22 23:13:00,25.2,20.5,29.61,West,268,0.0,2.0,82,0.00,,FEW080,0.00,VWS V14.00,2013-03-23 03:13:00,
2013-03-22 23:18:00,25.4,21.0,29.61,West,268,0.0,2.0,83,0.00,,FEW080,0.00,VWS V14.00,2013-03-23 03:18:00,
2013-03-22 23:23:00,25.7,21.0,29.60,West,268,0.0,2.0,82,0.00,,FEW080,0.00,VWS V14.00,2013-03-23 03:23:00,
2013-03-22 23:28:00,26.1,21.1,29.60,SW,235,1.0,1.0,81,0.00,,FEW080,0.00,VWS V14.00,2013-03-23 03:28:00,
2013-03-22 23:33:00,26.3,21.3,29.60,SW,235,0.0,2.0,81,0.00,,FEW080,0.00,VWS V14.00,2013-03-23 03:33:00,
2013-03-22 23:38:00,26.6,21.6,29.60,SW,235,1.0,2.0,81,0.00,,FEW080,0.00,VWS V14.00,2013-03-23 03:38:00,
2013-03-22 23:43:00,26.8,21.5,29.61,SW,235,0.0,2.0,80,0.00,,FEW080,0.00,VWS V14.00,2013-03-23 03:43:00,
2013-03-22 23:48:00,26.9,21.3,29.61,SW,235,0.0,2.0,79,0.00,,FEW080,0.00,VWS V14.00,2013-03-23 03:48:00,
2013-03-22 23:53:00,27.1,21.2,29.61,SW,235,0.0,2.0,78,0.00,,FEW080,0.00,VWS V14.00,2013-03-23 03:53:00,
2013-03-22 23:58:00,27.2,21.6,29.61,WSW,242,0.0,2.0,79,0.00,,FEW080,0.00,VWS V14.00,2013-03-23 03:58:00,